[[{"header":{"parameterUnit":"m.s-1","parameterCategory":1,"la1":30.2991,"la2":30.254,"lo1":-89.0895,"lo2":-89.0444,"dy":0.0017,"dx":0.0017,"nx":28,"ny":28,"refTime":"2025-03-07T03:00:00:Z","depth":0,"parameterNumber":2,"parameterNumberName":"U-component_of_WINDS"},"data":[0,0,0,0,0,0,0,0,0,0,0,0,0,0,0,0,0,0,0,0,0,0,0,0,0,0,0,0,0,0,0,0,0,0,0,0,0,0,0,0,0,0,0,0,0,0,0,0,0,0,0,0,0,0,0,0,0,0,-4.8752,-4.8752,0,-4.8757,-4.8757,-4.8757,-4.8653,-4.8651,-4.8648,-4.8645,-4.8648,-4.865,-4.8653,0,0,0,0,0,0,0,0,0,0,0,0,0,-4.8651,-4.8654,-4.8752,-4.8752,-4.8752,-4.8757,-4.8757,-4.8757,-4.8654,-4.865,-4.8647,-4.8644,-4.8647,-4.865,-4.8653,0,0,0,0,0,0,0,0,0,0,0,0,0,-4.868,-4.8655,-4.8752,-4.8701,-4.8697,-4.8757,-4.8757,-4.8757,-4.8655,-4.865,-4.8646,-4.8642,-4.8646,-4.865,-4.8654,-4.8762,0,0,-4.8666,-4.8668,0,0,0,0,0,0,0,0,-4.8678,-4.8683,-4.8709,-4.8705,-4.87,-4.87,-4.8723,-4.8759,-4.8656,-4.8671,-4.8645,-4.864,-4.8669,-4.867,-4.868,-4.8762,-4.8762,-4.8666,-4.8669,-4.8671,-4.8672,0,0,0,0,0,0,0,-4.8676,-4.8683,-4.8754,-4.8709,-4.8704,-4.8678,-4.8677,-4.8729,-4.8693,-4.8669,-4.8661,-4.8664,-4.8665,-4.8677,-4.868,-4.8762,-4.8666,-4.867,-4.8672,-4.8674,-4.8934,-4.8938,0,0,0,0,0,0,-4.8682,-4.8682,-4.8754,-4.8754,-4.8679,-4.8683,-4.8682,-4.8704,-4.8692,-4.8686,-4.8667,-4.8659,-4.8672,-4.8675,-4.8679,-4.8806,-4.867,-4.8674,-4.8677,-4.893,-4.8935,-4.894,0,0,0,0,0,0,-4.868,-4.8689,-4.8754,-4.8716,-4.8722,-4.8689,-4.8715,-4.8707,-4.8718,-4.8691,-4.8684,-4.8686,-4.8669,-4.8674,-4.8743,-4.8804,-4.8676,-4.868,-4.8924,-4.8931,-4.8938,-4.9059,0,0,0,0,0,0,-4.8677,-4.8689,-4.873,-4.8718,-4.8725,-4.8817,-4.8719,-4.871,-4.8726,-4.8715,-4.8706,-4.8701,-4.8666,-4.8737,-4.8747,-4.8807,-4.8683,-4.8919,-4.8927,-4.8935,-4.9049,-4.9069,-4.9086,0,0,0,0,0,-4.8674,-4.8763,-4.8733,-4.8742,-4.8775,-4.8821,-4.8825,-4.8784,-4.8731,-4.8772,-4.8754,-4.8701,-4.8797,-4.8745,-4.8755,-4.8818,-4.8914,-4.8925,-4.8935,-4.9041,-4.9065,-4.9085,0,0,0,0,0,0,-4.8782,-4.8761,-4.8726,-4.8814,-4.8821,-4.8804,-4.8853,-4.8811,-4.8831,-4.882,-4.8768,-4.8767,-4.8844,-4.8838,-4.8781,-4.8922,-4.8846,-4.8859,-4.8923,-4.8946,-4.8964,-4.8963,-4.8686,0,0,0,0,0,-4.8816,-4.8856,-4.8835,-4.8914,-4.892,-4.8887,-4.8905,-4.8873,-4.8877,-4.8879,-4.8866,-4.8872,-4.8903,-4.8924,-4.8951,-4.9048,-4.9045,-4.9097,-4.9115,-4.913,-4.9141,-4.9192,-4.9215,-4.8973,-4.8973,-4.8973,0,0,-4.8887,-4.888,-4.8908,-4.8936,-4.8937,-4.8979,-4.8889,-4.8937,-4.8967,-4.8886,-4.895,-4.8942,-4.8944,-4.9028,-4.9064,-4.9025,-4.9208,-4.9143,-4.9155,-4.9158,-4.9205,-4.9228,-4.9248,-4.898,-4.8979,-4.8978,0,0,-4.9036,-4.9036,-4.9102,-4.9106,-4.9109,-4.9087,-4.9104,-4.9094,-4.9085,-4.915,-4.909,-4.9125,-4.918,-4.9184,-4.9194,-4.9348,-4.93,-4.9359,-4.9454,-4.9504,-4.9523,-4.954,-4.9595,-4.9615,-4.937,-4.937,-4.9371,0,-4.9123,-4.9185,-4.9141,-4.9194,-4.9208,-4.9138,-4.9205,-4.921,-4.9222,-4.9233,-4.919,-4.9258,-4.9255,-4.9339,-4.9377,-4.9387,-4.9404,-4.9358,-4.9524,-4.9541,-4.9555,-4.9607,-4.9628,-4.9377,-4.9377,-4.9376,-4.9375,0,-4.9291,-4.9335,-4.9388,-4.9403,-4.9423,-4.9483,-4.9448,-4.9474,-4.9442,-4.9424,-4.9491,-4.9485,-4.951,-4.9528,-4.9496,-4.9608,-4.9584,-4.9534,-4.9455,-4.9586,-4.9634,-4.9653,-4.9388,-4.9385,-4.9383,-4.9381,0,0,-4.9506,-4.9499,-4.9519,-4.9525,-4.9525,-4.9558,-4.9615,-4.9641,-4.9664,-4.9675,-4.9721,-4.977,-4.9724,-4.9735,-4.9703,-4.9748,-4.9871,-4.9692,-4.9691,-4.9725,-4.9994,-5.0031,-5.0055,-4.984,-4.9843,-4.9846,-4.9994,0,-4.9651,-4.9748,-4.9712,-4.9811,-4.9851,-4.9787,-4.9836,-4.9842,-4.9828,-4.9859,-4.9843,-4.9879,-4.9815,-4.9822,-4.9863,-4.9847,-4.9924,-4.9836,-4.9881,-4.9883,-4.9881,-5.0079,-5.0118,-5.0257,-5.0012,-5.0015,-5.0017,0,-4.9832,-4.9853,-4.9957,-4.9952,-4.9967,-5.0012,-5.0033,-5.0065,-5.007,-5.0056,-5.0071,-5.0029,-5.0084,-5.0008,-5.0083,-5.0024,-5.0041,-5.0036,-5.0041,-5.0042,-4.9957,-5.0085,-5.0301,-5.0321,-5.0046,-5.0044,-5.0042,0,-4.9978,-5.0032,-5.0101,-5.0109,-5.0104,-5.0138,-5.0137,-5.0138,-5.0157,-5.0176,-5.0187,-5.0212,-5.0225,-5.0246,-5.0212,-5.016,-5.0292,-5.0213,-5.0282,-5.0283,-5.0311,-5.0309,-5.0531,-5.0324,-5.0324,-5.0323,-5.0323,0,-5.0143,-5.0209,-5.0167,-5.0209,-5.0281,-5.024,-5.0312,-5.0304,-5.0307,-5.0346,-5.0292,-5.033,-5.0285,-5.0318,-5.0293,-5.0359,-5.0365,-5.0356,-5.0348,-5.036,-5.0361,-5.0368,-5.0357,-5.0329,-5.0328,-5.0327,-5.0326,0,-5.0317,-5.0291,-5.0363,-5.0354,-5.0353,-5.0407,-5.0398,-5.0437,-5.0421,-5.0471,-5.0481,-5.0454,-5.0492,-5.0461,-5.0497,-5.048,-5.0567,-5.0546,-5.0566,-5.0559,-5.0629,-5.0623,-5.0863,-5.0892,-5.0668,-5.067,-5.0672,0,-5.0423,-5.0472,-5.047,-5.0493,-5.0496,-5.0535,-5.0554,-5.0515,-5.0537,-5.0548,-5.0586,-5.0619,-5.0643,-5.0706,-5.0689,-5.0717,-5.0695,-5.0777,-5.0698,-5.0709,-5.0695,-5.0692,-5.0696,-5.0793,-5.0795,-5.0797,-5.0799,0,-5.0613,-5.0599,-5.0629,-5.0656,-5.0681,-5.07,-5.0714,-5.0736,-5.0697,-5.0725,-5.0763,-5.0782,-5.082,-5.0853,-5.0876,-5.0874,-5.0831,-5.0825,-5.0842,-5.0853,-5.0862,-5.0858,-5.0608,-5.0819,-5.0817,-5.0815,-5.0814,-5.0813,-5.0755,-5.0797,-5.0802,-5.0838,-5.0845,-5.0861,-5.0897,-5.0886,-5.0917,-5.0946,-5.0922,-5.0968,-5.0973,-5.0998,-5.1003,-5.1038,-5.1004,-5.1029,-5.1035,-5.1041,-5.1051,-5.0859,-5.1042,-5.1042,-5.1041,-5.104,-5.104,0,-5.0942,-5.0943,-5.0977,-5.1,-5.1028,-5.0987,-5.1001,-5.1028,-5.1069,-5.1078,-5.1104,-5.1149,-5.1181,-5.1169,-5.1197,-5.1228,-5.1209,-5.1237,-5.1233,-5.1233,-5.108,-5.1062,-5.1252,-5.1252,-5.1252,-5.1252,-5.1252,-5.1252,-5.1042,-5.111,-5.1097,-5.1169,-5.1169,-5.1214,-5.1226,-5.124,-5.1247,-5.13,-5.1327,-5.132,-5.132,-5.1349,-5.1377,-5.1373,-5.1385,-5.142,-5.1409,-5.1265,-5.1244,-5.1224,-5.1207,-5.1424,-5.1424,-5.1558,-5.156,-5.1561]},{"header":{"parameterUnit":"m.s-1","parameterCategory":1,"la1":30.2991,"la2":30.254,"lo1":-89.0895,"lo2":-89.0444,"dy":0.0017,"dx":0.0017,"nx":28,"ny":28,"refTime":"2025-03-07T03:00:00:Z","depth":0,"parameterNumber":3,"parameterNumberName":"V-component_of_WINDS"},"data":[0,0,0,0,0,0,0,0,0,0,0,0,0,0,0,0,0,0,0,0,0,0,0,0,0,0,0,0,0,0,0,0,0,0,0,0,0,0,0,0,0,0,0,0,0,0,0,0,0,0,0,0,0,0,0,0,0,0,0.697,0.697,0,0.698,0.6981,0.6981,0.6986,0.6986,0.6986,0.6986,0.6996,0.6996,0.6997,0,0,0,0,0,0,0,0,0,0,0,0,0,0.6955,0.6956,0.697,0.697,0.697,0.698,0.6981,0.6981,0.6986,0.6986,0.6986,0.6986,0.6996,0.6996,0.6997,0,0,0,0,0,0,0,0,0,0,0,0,0,0.6963,0.6956,0.697,0.6974,0.6974,0.698,0.6981,0.6981,0.6986,0.6986,0.6986,0.6986,0.6996,0.6996,0.6997,0.6999,0,0,0.6998,0.6998,0,0,0,0,0,0,0,0,0.6963,0.6964,0.6973,0.6974,0.6974,0.6982,0.6979,0.6987,0.6986,0.6981,0.6986,0.6986,0.6991,0.6992,0.6994,0.7,0.7,0.6998,0.6998,0.6998,0.6999,0,0,0,0,0,0,0,0.6962,0.6963,0.6974,0.6973,0.6974,0.6976,0.6977,0.6981,0.6986,0.6982,0.6982,0.6983,0.6992,0.6994,0.6994,0.7,0.6998,0.6998,0.6999,0.6999,0.7011,0.7011,0,0,0,0,0,0,0.6961,0.6963,0.6974,0.6974,0.6968,0.6976,0.6977,0.6979,0.6986,0.6987,0.6983,0.6984,0.6993,0.6994,0.6995,0.7,0.6998,0.6999,0.6999,0.7011,0.7011,0.7011,0,0,0,0,0,0,0.6961,0.6962,0.6973,0.6969,0.697,0.6976,0.6979,0.698,0.6982,0.6987,0.6988,0.6984,0.6993,0.6994,0.6999,0.7,0.6999,0.6999,0.7011,0.7011,0.7011,0.7009,0,0,0,0,0,0,0.696,0.6962,0.6962,0.6969,0.6971,0.6977,0.6979,0.698,0.6982,0.6983,0.6989,0.699,0.6993,0.6998,0.6999,0.7001,0.7,0.7011,0.7011,0.7011,0.7009,0.7009,0.7009,0,0,0,0,0,0.696,0.696,0.6962,0.6964,0.6971,0.6977,0.6978,0.6982,0.6982,0.6984,0.6988,0.6989,0.7,0.6998,0.7,0.7001,0.7011,0.7011,0.7011,0.7009,0.7009,0.7009,0,0,0,0,0,0,0.6953,0.6961,0.6963,0.6966,0.6971,0.6977,0.6979,0.6981,0.6986,0.6986,0.6991,0.6992,0.6996,0.6999,0.6998,0.7006,0.7006,0.7006,0.7003,0.7004,0.7004,0.7003,0.7,0,0,0,0,0,0.6952,0.6956,0.6963,0.6965,0.6967,0.6973,0.6975,0.6978,0.6983,0.6985,0.6989,0.6994,0.6998,0.7001,0.7005,0.7009,0.7012,0.7011,0.7011,0.7011,0.7012,0.7016,0.7017,0.7012,0.7012,0.7012,0,0,0.695,0.6955,0.6957,0.6964,0.6967,0.6972,0.6974,0.6978,0.6981,0.6985,0.699,0.6994,0.6999,0.7004,0.7007,0.7007,0.7014,0.7012,0.7012,0.7012,0.7017,0.7017,0.7017,0.7012,0.7012,0.7012,0,0,0.6949,0.6952,0.6955,0.6959,0.6966,0.697,0.6971,0.6977,0.698,0.6985,0.6989,0.6993,0.7001,0.7005,0.7008,0.7011,0.7014,0.7012,0.7013,0.7017,0.7017,0.7018,0.702,0.7021,0.7013,0.7013,0.7013,0,0.6945,0.6951,0.6956,0.6961,0.6964,0.6969,0.6973,0.6977,0.6984,0.6986,0.6987,0.6997,0.7001,0.7008,0.701,0.7011,0.7013,0.7012,0.7017,0.7017,0.7018,0.702,0.7021,0.7013,0.7013,0.7013,0.7013,0,0.6947,0.6952,0.6954,0.6962,0.6966,0.6969,0.6976,0.6979,0.6982,0.6987,0.6993,0.6998,0.7005,0.7007,0.7009,0.7015,0.7015,0.7016,0.7016,0.7018,0.7021,0.7022,0.7013,0.7013,0.7013,0.7013,0,0,0.6941,0.6953,0.6954,0.6959,0.6967,0.6971,0.6976,0.6983,0.6986,0.6991,0.6997,0.7004,0.7006,0.7009,0.7013,0.7016,0.702,0.7017,0.7017,0.7019,0.7029,0.7029,0.703,0.7022,0.7022,0.7022,0.7029,0,0.6941,0.695,0.6956,0.6963,0.6969,0.6974,0.6979,0.6985,0.699,0.6995,0.7,0.7006,0.7007,0.701,0.7013,0.7019,0.7023,0.7019,0.7028,0.7028,0.7027,0.7031,0.703,0.7036,0.703,0.703,0.703,0,0.6942,0.6949,0.6957,0.6967,0.6969,0.6973,0.6982,0.6986,0.6994,0.6997,0.7003,0.7007,0.7013,0.7013,0.7023,0.702,0.7024,0.7028,0.7028,0.703,0.7029,0.7033,0.7037,0.7039,0.7031,0.7031,0.7031,0,0.6939,0.6949,0.6956,0.696,0.6971,0.6974,0.6979,0.6987,0.6991,0.6999,0.7002,0.7009,0.7014,0.702,0.7026,0.7025,0.7036,0.7036,0.704,0.704,0.7042,0.7042,0.7048,0.7043,0.7043,0.7043,0.7043,0,0.6939,0.6944,0.6955,0.6959,0.6965,0.6972,0.6979,0.6984,0.6991,0.6997,0.7002,0.7008,0.7016,0.7022,0.7027,0.7036,0.7037,0.7041,0.7042,0.7041,0.7041,0.7044,0.7044,0.7043,0.7043,0.7043,0.7043,0,0.6935,0.6943,0.6951,0.6962,0.6965,0.6969,0.6979,0.6984,0.6989,0.6997,0.6999,0.7008,0.7017,0.7024,0.7034,0.7038,0.7047,0.7048,0.7045,0.7046,0.705,0.705,0.7059,0.7061,0.7054,0.7054,0.7054,0,0.6935,0.694,0.6952,0.6956,0.6962,0.6969,0.6974,0.6982,0.6987,0.6998,0.7002,0.7011,0.7018,0.7032,0.704,0.7048,0.705,0.7053,0.7052,0.7051,0.7052,0.7052,0.7053,0.7053,0.7053,0.7053,0.7053,0,0.6935,0.6939,0.6947,0.6956,0.6963,0.697,0.6978,0.6982,0.6991,0.6997,0.7006,0.7012,0.7025,0.7034,0.7044,0.705,0.7054,0.7054,0.7056,0.7054,0.7053,0.7055,0.7046,0.7054,0.7054,0.7054,0.7054,0.7054,0.6934,0.6939,0.6949,0.6958,0.6965,0.6973,0.6978,0.6986,0.6994,0.7005,0.7009,0.7019,0.7028,0.7043,0.7048,0.7057,0.7057,0.7059,0.706,0.706,0.7061,0.7051,0.7058,0.7058,0.7058,0.7058,0.7058,0,0.6935,0.6942,0.695,0.6962,0.697,0.6973,0.6983,0.6989,0.6998,0.7006,0.7015,0.7026,0.7036,0.7045,0.7056,0.7061,0.7063,0.7064,0.7064,0.7065,0.7059,0.7057,0.7062,0.7062,0.7062,0.7062,0.7062,0.7062,0.6937,0.6946,0.6951,0.6965,0.6972,0.6982,0.6988,0.6995,0.7003,0.7016,0.7024,0.7031,0.704,0.7052,0.7062,0.7064,0.7068,0.7068,0.7072,0.7066,0.7065,0.7065,0.7063,0.7069,0.7069,0.7077,0.7077,0.7077]}]]